OSCAR 7 (AO-7) 1 07530U 74089B 25351.61485071 -.00000028 00000+0 11289-3 0 9995 2 07530 101.9964 357.9338 0012379 117.4240 358.2032 12.53694326337766 PHASE 3B (AO-10) 1 14129U 83058B 25349.79859870 .00000067 00000+0 00000+0 0 9998 2 14129 26.0495 250.6586 6064792 64.4851 345.0346 2.05872632291719 UOSAT 2 (UO-11) 1 14781U 84021B 25351.62808338 .00001272 00000+0 13702-3 0 9997 2 14781 97.7817 314.5807 0009209 68.6225 291.5975 14.90157767230087 LUSAT (LO-19) 1 20442U 90005G 25351.56992480 .00000132 00000+0 63827-4 0 9990 2 20442 98.8957 3.2725 0011949 23.7885 336.3848 14.34046676876362 EYESAT A (AO-27) 1 22825U 93061C 25351.12432327 .00000109 00000+0 58794-4 0 9994 2 22825 98.7142 53.4019 0007314 274.9556 85.0792 14.30878303680964 ITAMSAT (IO-26) 1 22826U 93061D 25351.64698171 .00000119 00000+0 62079-4 0 9995 2 22826 98.7089 53.8256 0007864 254.7057 105.3256 14.31299527681344 RADIO ROSTO (RS-15) 1 23439U 94085A 25351.65811236 -.00000074 00000+0 -88886-3 0 9998 2 23439 64.8159 236.7966 0149881 37.5837 323.5451 11.27582633275431 JAS-2 (FO-29) 1 24278U 96046B 25351.65284208 -.00000039 00000+0 -29348-5 0 9993 2 24278 98.5460 220.1288 0349360 207.2108 151.0342 13.53262924448611 TECHSAT 1B (GO-32) 1 25397U 98043D 25351.55371028 .00000074 00000+0 52315-4 0 9997 2 25397 98.9923 334.8770 0001923 49.5490 310.5855 14.24378479425474 ISS (ZARYA) 1 25544U 98067A 25351.57133537 .00007597 00000+0 14274-3 0 9998 2 25544 51.6310 118.5527 0003182 262.6214 97.4413 15.49636687543605 PCSAT (NO-44) 1 26931U 01043C 25351.41616805 .00000154 00000+0 88587-4 0 9995 2 26931 67.0515 354.3848 0007420 269.6744 90.3508 14.31857439264421 SAUDISAT 1C (SO-50) 1 27607U 02058C 25351.39286381 .00001651 00000+0 21481-3 0 9994 2 27607 64.5541 331.2167 0072439 295.7298 63.6342 14.82410639237508 CUTE-1 (CO-55) 1 27844U 03031E 25351.57814299 .00000324 00000+0 15972-3 0 9998 2 27844 98.6762 357.4188 0009534 359.6280 0.4890 14.24183443165822 CUBESAT XI-IV (CO-57) 1 27848U 03031J 25351.47671991 .00000278 00000+0 14155-3 0 9991 2 27848 98.6791 357.1768 0009765 17.6835 342.4682 14.23490862165522 MOZHAETS 4 (RS-22) 1 27939U 03042A 25351.66925676 .00001141 00000+0 18588-3 0 9991 2 27939 98.3359 165.9996 0012214 120.9649 301.5813 14.72984625188821 CUBESAT XI-V 1 28895U 05043F 25351.40415762 .00001462 00000+0 24129-3 0 9992 2 28895 98.2719 138.5607 0015265 64.5076 295.7708 14.71918269 75005 CUTE-1.7+APD II (CO-65) 1 32785U 08021C 25351.61837854 .00005661 00000+0 38106-3 0 9992 2 32785 97.8081 324.7760 0007832 290.8598 69.1790 15.07103047957821 SEEDS II (CO-66) 1 32791U 08021J 25351.49560161 .00014023 00000+0 55754-3 0 9999 2 32791 97.7442 336.8052 0001833 182.4298 177.6930 15.25413551959528 YUBILEINY (RS-30) 1 32953U 08025A 25351.61977010 .00000047 00000+0 26975-3 0 9996 2 32953 82.5017 108.3876 0018839 350.3091 9.7623 12.43172291797136 KKS-1 (KISEKI) 1 33499U 09002H 25351.60186606 .00001430 00000+0 18517-3 0 9990 2 33499 98.1182 266.2689 0008434 149.4908 210.6797 14.82450825909281 SWISSCUBE 1 35932U 09051B 25351.28800234 .00001158 00000+0 24095-3 0 9997 2 35932 98.4147 250.9501 0008039 62.1686 298.0328 14.61970782862573 BEESAT-1 1 35933U 09051C 25351.61784357 .00000929 00000+0 19804-3 0 9999 2 35933 98.4076 251.2879 0006555 73.6690 286.5231 14.61289762862666 ITUPSAT1 1 35935U 09051E 25351.17741619 .00000847 00000+0 18637-3 0 9998 2 35935 98.4166 250.2152 0008759 83.2848 276.9348 14.60043018862170 XIWANG-1 (HOPE-1) 1 36122U 09072B 25351.60560755 .00000284 00000+0 85901-3 0 9991 2 36122 100.3772 303.5539 0006984 291.3241 68.7126 13.16434166769112 O/OREOS (USA 219) 1 37224U 10062C 25351.45177344 .00002239 00000+0 22261-3 0 9999 2 37224 71.9697 131.7045 0013357 46.9467 313.2819 14.92702528 89515 JUGNU 1 37839U 11058B 25351.63912226 .00000434 00000+0 87033-4 0 9997 2 37839 19.9625 331.3415 0018434 230.8701 285.2644 14.13698706733307 SRMSAT 1 37841U 11058D 25351.60850188 .00000399 00000+0 73051-4 0 9990 2 37841 19.9720 78.4836 0011885 7.0463 21.2980 14.11513105732132 STRAND-1 1 39090U 13009E 25351.47402573 .00000320 00000+0 12210-3 0 9995 2 39090 98.3821 171.2442 0009603 58.1017 302.1103 14.37009120670960 ZACUBE-1 (TSHEPISOSAT) 1 39417U 13066B 25351.39749824 .00003280 00000+0 27002-3 0 9998 2 39417 97.8056 307.9496 0042001 132.1904 228.2897 14.99124350653477 GOMX-1 1 39430U 13066Q 25351.53472958 .00001902 00000+0 29627-3 0 9994 2 39430 97.6589 198.3599 0129386 301.1182 57.7384 14.68607992643249 CUBEBUG-2 (LO-74) 1 39440U 13066AA 25351.56788106 .00003439 00000+0 33426-3 0 9992 2 39440 97.8708 295.2332 0058016 269.4523 90.0047 14.92015584649893 FUNCUBE-1 (AO-73) 1 39444U 13066AE 25351.43889655 .00006686 00000+0 45405-3 0 9990 2 39444 97.8069 314.7748 0040942 100.4338 260.1506 15.06034478652277 UWE-3 1 39446U 13066AG 25351.43932940 .00002911 00000+0 26437-3 0 9999 2 39446 97.8481 301.7925 0049791 203.5262 156.3681 14.95144278650402 UNISAT-6 1 40012U 14033C 25351.65919675 .00002637 00000+0 29647-3 0 9990 2 40012 97.7615 143.0039 0045298 307.6233 52.0876 14.86834250619179 DUCHIFAT-1 1 40021U 14033M 25351.58124678 .00032101 00000+0 77857-3 0 9998 2 40021 98.0784 23.9026 0007052 19.0327 341.1180 15.40973596627599 QB50P1 1 40025U 14033R 25351.44292485 .00007398 00000+0 40468-3 0 9997 2 40025 98.0962 345.3369 0010959 120.5378 239.6935 15.14542045625483 LILACSAT-2 1 40908U 15049K 25351.59436692 .00012884 00000+0 27606-3 0 9996 2 40908 97.4909 17.1264 0007725 179.0731 181.0533 15.44870334567650 FOX-1A (AO-85) 1 40967U 15058D 25351.64212787 .00003441 00000+0 31773-3 0 9993 2 40967 64.7748 122.6425 0134320 128.1083 233.2231 14.89701434 86519 CAS-2T & KS-1Q 1 41847U 16066G 25351.61148153 .00000926 00000+0 14068-3 0 9996 2 41847 98.4034 64.3044 0342914 320.3691 37.2883 14.44142380478586 RADFXSAT (FOX-1B) 1 43017U 17073E 25351.61838365 .00008335 00000+0 39503-3 0 9990 2 43017 97.4950 217.7039 0159200 233.5057 125.1418 15.08965472437971 DIWATA-2B 1 43678U 18084H 25351.59025741 .00002113 00000+0 17750-3 0 9997 2 43678 98.1021 175.2476 0007607 33.7979 326.3727 14.99460893388991 ES'HAIL 2 1 43700U 18090A 25351.56032229 .00000169 00000+0 00000+0 0 9991 2 43700 0.0047 73.6268 0000945 209.9824 30.3426 1.00270988 25854 FOX-1CLIFF (AO-95) 1 43770U 18099N 25351.59248325 .00009658 00000+0 42560-3 0 9999 2 43770 97.4678 47.8396 0008193 266.2803 93.7496 15.21991678385552 ITASAT 1 43786U 18099AE 25351.38396613 .00005912 00000+0 30947-3 0 9992 2 43786 97.4322 41.5987 0011913 265.6362 94.3510 15.16139581385330 JY1SAT (JO-97) 1 43803U 18099AX 25351.14082849 .00013184 00000+0 49994-3 0 9991 2 43803 97.4424 48.9433 0006230 185.0296 175.0881 15.26982803385788 UWE-4 1 43880U 18111E 25351.52401118 .00020711 00000+0 61813-3 0 9995 2 43880 97.5863 268.1812 0007202 254.7915 105.2532 15.34635386382819 TIANYAN 01 1 44881U 19093C 25351.61568493 .00000706 00000+0 86616-4 0 9998 2 44881 97.7759 63.1383 0013016 329.5715 30.4744 14.86113140324446 RS-44 & BREEZE-KM R/B 1 44909U 19096E 25351.39224547 .00000005 00000+0 -21273-4 0 9997 2 44909 82.5213 100.5173 0217207 209.1838 149.6985 12.79746143279099 SALSAT 1 46495U 20068K 25351.51398153 .00007457 00000+0 28925-3 0 9996 2 46495 97.8780 339.0442 0009285 210.0170 150.0536 15.26405168287611 XW-3 (CAS-9) 1 50466U 21131B 25351.51027568 .00000540 00000+0 18119-3 0 9990 2 50466 98.5051 79.9076 0003106 289.1020 70.9832 14.41119140208949 GREENCUBE (IO-117) 1 53109U 22080E 25351.40093974 -.00000003 00000+0 00000+0 0 9994 2 53109 70.1587 1.4598 0009167 326.8109 33.1975 6.42583171 80381 STRATOSAT-TK 1 (RS52S) 1 57167U 23091B 25351.16639496 .00281038 00000+0 15085-2 0 9993 2 57167 97.5190 64.0043 0005141 308.6443 51.4363 15.79486745137576 UMKA 1 (RS40S) 1 57172U 23091G 25351.61948444 .00005533 00000+0 27298-3 0 9999 2 57172 97.5342 46.0633 0014362 37.6246 322.5989 15.18235083136431 CUBESX-HSE 3 (RS42S) 1 57178U 23091N 25351.66413935 .00010589 00000+0 41479-3 0 9996 2 57178 97.5374 50.3915 0012416 20.1303 340.0422 15.25906344136690 MONITOR-3 (RS58S) 1 57180U 23091Q 25351.67242065 .00008441 00000+0 35566-3 0 9998 2 57180 97.5368 49.0814 0013359 24.3559 335.8306 15.23512149136614 MONITOR-4 (RS57S) 1 57182U 23091S 25351.59597216 .00009123 00000+0 38332-3 0 9994 2 57182 97.5363 48.9659 0013374 25.0641 335.1242 15.23581900136605 MONITOR-2 (RS39S) 1 57184U 23091U 25351.63610414 .00004889 00000+0 25196-3 0 9995 2 57184 97.5366 46.0783 0012429 30.4783 329.7170 15.16784912136412 SVYATOBOR 1 (RS60S) 1 57187U 23091X 25351.61802745 .00007401 00000+0 31845-3 0 9997 2 57187 97.5375 49.6456 0010549 18.2961 341.8653 15.22874670136648 VIZARD-METEO (RS38S) 1 57189U 23091Z 25351.61291063 .00012657 00000+0 44447-3 0 9995 2 57189 97.5366 53.0802 0008333 6.5189 353.6158 15.29509171136878 NANOZOND 1 (RS49S) 1 57190U 23091AA 25351.64194698 .00056106 00000+0 86848-3 0 9994 2 57190 97.5287 61.7532 0004307 340.5279 19.5809 15.53870104137467 POLYTECH-UNIVERSE 3 (R*) 1 57191U 23091AB 25351.61961198 .00004619 00000+0 23668-3 0 9992 2 57191 97.5339 45.5749 0017298 44.6978 315.5646 15.16952049136406 UTMN 2 (RS27S) 1 57203U 23091AP 25351.65582227 .00010616 00000+0 40470-3 0 9996 2 57203 97.5366 51.7890 0009146 10.1845 349.9577 15.26845047136796 KUZGTU 1 (RS47S) 1 57217U 23091AV 25351.65057057 .00010152 00000+0 40888-3 0 9997 2 57217 97.5348 49.6527 0012637 22.8743 337.3054 15.24988028136662 SONATE-2 1 59112U 24043Q 25351.63937270 .00022259 00000+0 46733-3 0 9999 2 59112 97.5328 128.0737 0009141 144.8827 215.3026 15.45333885 99733 MESAT1 1 60209U 24125G 25351.57690300 .00026652 00000+0 53481-3 0 9991 2 60209 97.2516 201.9530 0014485 159.9160 200.2663 15.46548371 81352 OOV-CUBE (TUBSAT-30) 1 60240U 24128F 25351.60789365 .00002475 00000+0 19911-3 0 9990 2 60240 61.9939 138.2375 0058348 95.2471 265.5282 15.01639023 78832 COLIBRI-S (RS67S) 1 61746U 24199M 25351.62871509 .00015684 00000+0 40132-3 0 9999 2 61746 97.3260 219.5623 0008731 210.8040 149.2695 15.39466722109400 HORS 3 (RS81S) 1 61753U 24199U 25351.61335363 .00021418 00000+0 48942-3 0 9998 2 61753 97.3231 220.1777 0006703 214.6082 145.4730 15.42844424109455 HORS 4 (RS82S) 1 61754U 24199V 25351.60762745 .00025120 00000+0 53991-3 0 9990 2 61754 97.3214 220.6107 0006751 213.0447 147.0380 15.44635161109480 HORIZON (RS59S) 1 61757U 24199Y 25351.63966421 .00046514 00000+0 71152-3 0 9992 2 61757 97.3219 222.8099 0006172 187.3305 172.7860 15.54228634109623 ARCTICSAT 1 (RS74S) 1 61762U 24199AD 25351.64062662 .00043422 00000+0 70325-3 0 9999 2 61762 97.3227 222.6532 0006385 184.2612 175.8587 15.52658067109615 SIT-2086 1 61764U 24199AF 25351.61651241 .00026790 00000+0 60883-3 0 9992 2 61764 97.3229 220.9350 0006693 204.0948 155.9988 15.42964063106349 MORDOVIA-IOT (RS50S) 1 61765U 24199AG 25351.61938840 .00134842 00000+0 10673-2 0 9995 2 61765 97.3118 225.4521 0004725 149.5089 210.6450 15.70910595106659 RUZAEVKA 390 (RS44S) 1 61766U 24199AH 25351.61855522 .00079066 00000+0 87783-3 0 9994 2 61766 97.3171 224.3997 0004785 165.4726 194.6671 15.62657590106587 HYPERVIEW 1G (RS66S) 1 61772U 24199AP 25351.65539485 .00034495 00000+0 65368-3 0 9994 2 61772 97.3209 221.1530 0008152 214.5223 145.5499 15.48237110106370 ALTAIR (RS65S) 1 61779U 24199AW 25351.63617059 .00008737 00000+0 27689-3 0 9997 2 61779 97.3262 217.3806 0012473 234.3225 125.6857 15.32881306109265 ASRTU-1 (AO-123) 1 61781U 24199AY 25351.63667150 .00009157 00000+0 29758-3 0 9993 2 61781 97.3251 217.0330 0012969 235.8695 124.1317 15.32053577106096 TUSUR GO (RS78S) 1 61782U 24199AZ 25351.64237465 .00047961 00000+0 75077-3 0 9997 2 61782 97.3177 221.8967 0006993 207.8700 152.2180 15.53578066106424 SAMSAT-IONOSPHERE (RS7*) 1 61784U 24199BB 25351.61185785 .00024557 00000+0 55301-3 0 9997 2 61784 97.3225 219.8869 0009959 222.5062 137.5416 15.43224915109430 RTU MIREA 1 (RS51S) 1 61785U 24199BC 25351.62526146 .00025704 00000+0 55632-3 0 9991 2 61785 97.3220 220.1627 0009565 219.6680 140.3870 15.44400111106303 HADES-R 1 62690U 25009CK 25351.51430377 .00144472 00000+0 17305-2 0 9994 2 62690 97.3881 74.3245 0001224 263.6183 96.4935 15.60466474 51526 TEVEL2-4 1 63213U 25052D 25351.63036763 .00014147 00000+0 53206-3 0 9994 2 63213 97.4111 243.4254 0004891 52.8690 307.2995 15.27242652 42339 TEVEL2-5 1 63214U 25052E 25351.63606947 .00014159 00000+0 53373-3 0 9990 2 63214 97.4109 243.4181 0004842 53.1928 306.9754 15.27166935 42338 TEVEL2-6 1 63215U 25052F 25351.64352877 .00014634 00000+0 55229-3 0 9992 2 63215 97.4112 243.4137 0004932 53.0540 307.1150 15.27119441 42336 TEVEL2-1 1 63217U 25052H 25351.62172047 .00013371 00000+0 51001-3 0 9992 2 63217 97.4084 243.1987 0005266 61.1781 298.9986 15.26786606 42329 TEVEL2-3 1 63218U 25052J 25351.62085005 .00013685 00000+0 52155-3 0 9999 2 63218 97.4084 243.2036 0005303 62.0175 298.1600 15.26809787 42326 TEVEL2-2 1 63219U 25052K 25351.16370971 .00014302 00000+0 54545-3 0 9990 2 63219 97.4085 242.7438 0005278 62.4349 297.7425 15.26775541 42258 TEVEL2-9 1 63237U 25052AD 25351.65594251 .00013579 00000+0 54136-3 0 9994 2 63237 97.4148 242.9325 0009220 68.3398 291.8821 15.25281330 42291 TEVEL2-7 1 63238U 25052AE 25351.60473455 .00012762 00000+0 51137-3 0 9993 2 63238 97.4149 242.8549 0009417 68.6120 291.6122 15.25125781 42282 TEVEL2-8 1 63239U 25052AF 25351.61045372 .00012589 00000+0 50487-3 0 9992 2 63239 97.4151 242.8451 0009344 68.8322 291.3914 15.25100266 42280 HADES-ICM 1 63492U 25052BN 25351.63576864 .00047554 00000+0 11852-2 0 9992 2 63492 97.4088 245.2057 0011589 62.5205 297.7218 15.40008167 42454 INNOSAT 16 (RS92S7) 1 64878U 25155C 25351.61408528 .00003523 00000+0 15344-3 0 9993 2 64878 97.4333 314.9341 0013022 102.3283 257.9412 15.22797061 53015 GEOSCAN 6 (RS92S6) 1 64879U 25155D 25351.59471051 .00009555 00000+0 37788-3 0 9999 2 64879 97.4334 315.2835 0010719 97.1866 263.0591 15.25630631 53037 GEOSCAN 1 (RS92S1) 1 64880U 25155E 25351.58359806 .00010045 00000+0 39390-3 0 9990 2 64880 97.4335 315.3040 0010644 97.5859 262.6588 15.25900607 53036 239ALFEROV (RS61S) 1 64881U 25155F 25351.60781807 .00012296 00000+0 46866-3 0 9990 2 64881 97.4344 315.4452 0010455 97.2745 262.9683 15.26795594 53044 GEOSCAN 2 (RS92S2) 1 64890U 25155Q 25351.61272413 .00009646 00000+0 37475-3 0 9990 2 64890 97.4333 315.4061 0009974 86.9781 273.2599 15.26230796 53046 GEOSCAN 5 (RS92S5) 1 64891U 25155R 25351.57105770 .00011797 00000+0 44512-3 0 9997 2 64891 97.4338 315.4718 0009149 101.8702 258.3563 15.27153378 53041 GEOSCAN 4 (RS92S4) 1 64892U 25155S 25351.56793158 .00011999 00000+0 45173-3 0 9998 2 64892 97.4340 315.4796 0009180 102.3775 257.8492 15.27222558 53044 GEOSCAN 3 (RS92S3) 1 64893U 25155T 25351.60092225 .00014532 00000+0 53388-3 0 9994 2 64893 97.4334 315.5820 0008987 103.6984 256.5256 15.27984899 53055 INNOSAT 3 (RS92S0) 1 64894U 25155U 25351.57076962 .00022675 00000+0 76787-3 0 9996 2 64894 97.4320 315.7626 0008984 104.2098 256.0141 15.30552858 53066